Location: *
(46.0770°N, 1.6444°E)
Time: 04:32:29
(UTC+00:00)

Cosmos 2297 Rocket - Pass Details

Date: 16 September 2019
Orbit: 841 x 842 km, 71.0° (Epoch: 17 October)

Event Time Altitude Azimuth Distance (km) Brightness Sun altitude
Rises 19:41:45 0° 176° (S) 3,383 5.1 -17.3°
Enters shadow 19:42:39 - 174° (S) 3,059 4.8 -17.5°
Exits shadow 19:48:38 32° 121° (ESE) 1,405 2.8 -18.4°
Maximum altitude 19:49:22 33° 105° (ESE) 1,373 2.7 -18.5°
Drops below altitude 10° 19:54:23 10° 43° (NE) 2,469 4.4 -19.3°
Sets 19:57:02 0° 34° (NE) 3,408 5.3 -19.7°
